Time,TemperatureF,DewpointF,PressureIn,WindDirection,WindDirectionDegrees,WindSpeedMPH,WindSpeedGustMPH,Humidity,HourlyPrecipIn,Conditions,Clouds,dailyrainin,SoftwareType,DateUTC
2013-08-30 00:22:00,54.0,-99.9,-100.00,North,-999,-999.0,-999.0,-999,0.00,,,0.02,,2013-08-30 06:22:00,
2013-08-30 00:32:00,54.0,-99.9,-100.00,North,-999,-999.0,-999.0,-999,0.00,,,0.02,,2013-08-30 06:32:00,
2013-08-30 00:42:00,54.0,-99.9,-100.00,North,-999,-999.0,-999.0,-999,0.00,,,0.02,,2013-08-30 06:42:00,
2013-08-30 01:22:00,52.0,-99.9,-100.00,North,-999,-999.0,-999.0,-999,0.00,,,0.02,,2013-08-30 07:22:00,
2013-08-30 01:32:00,52.0,-99.9,-100.00,North,-999,-999.0,-999.0,-999,0.00,,,0.02,,2013-08-30 07:32:00,
2013-08-30 01:44:00,52.0,-99.9,-100.00,North,-999,-999.0,-999.0,-999,0.00,,,0.02,,2013-08-30 07:44:00,
2013-08-30 02:23:00,52.0,-99.9,-100.00,North,-999,-999.0,-999.0,-999,0.00,,,0.02,,2013-08-30 08:23:00,
2013-08-30 02:32:00,52.0,-99.9,-100.00,North,-999,-999.0,-999.0,-999,0.00,,,0.02,,2013-08-30 08:32:00,
2013-08-30 02:43:00,52.0,-99.9,-100.00,North,-999,-999.0,-999.0,-999,0.00,,,0.02,,2013-08-30 08:43:00,
2013-08-30 03:22:00,50.0,-99.9,-100.00,North,-999,-999.0,-999.0,-999,0.00,,,-99.99,,2013-08-30 09:22:00,
2013-08-30 03:34:00,50.0,-99.9,-100.00,North,-999,-999.0,-999.0,-999,0.00,,,-99.99,,2013-08-30 09:34:00,
2013-08-30 03:44:00,50.0,-99.9,-100.00,North,-999,-999.0,-999.0,-999,0.00,,,-99.99,,2013-08-30 09:44:00,
2013-08-30 04:23:00,50.0,-99.9,-100.00,North,-999,-999.0,-999.0,-999,0.00,,,0.02,,2013-08-30 10:23:00,
2013-08-30 04:32:00,50.0,-99.9,-100.00,North,-999,-999.0,-999.0,-999,0.00,,,0.02,,2013-08-30 10:32:00,
2013-08-30 04:43:00,50.0,-99.9,-100.00,North,-999,-999.0,-999.0,-999,0.00,,,0.02,,2013-08-30 10:43:00,
2013-08-30 05:23:00,48.0,-99.9,-100.00,North,-999,-999.0,-999.0,-999,0.00,,,0.02,,2013-08-30 11:23:00,
2013-08-30 05:33:00,48.0,-99.9,-100.00,North,-999,-999.0,-999.0,-999,0.00,,,0.02,,2013-08-30 11:33:00,
2013-08-30 05:42:00,48.0,-99.9,-100.00,North,-999,-999.0,-999.0,-999,0.00,,,0.02,,2013-08-30 11:42:00,
2013-08-30 06:22:00,47.0,-99.9,-100.00,North,-999,-999.0,-999.0,-999,0.00,,,0.02,,2013-08-30 12:22:00,
2013-08-30 06:32:00,47.0,-99.9,-100.00,North,-999,-999.0,-999.0,-999,0.00,,,0.02,,2013-08-30 12:32:00,
2013-08-30 06:42:00,47.0,-99.9,-100.00,North,-999,-999.0,-999.0,-999,0.00,,,0.02,,2013-08-30 12:42:00,
2013-08-30 07:22:00,47.0,-99.9,-100.00,North,-999,-999.0,-999.0,-999,0.00,,,0.02,,2013-08-30 13:22:00,
2013-08-30 07:32:00,47.0,-99.9,-100.00,North,-999,-999.0,-999.0,-999,0.00,,,0.02,,2013-08-30 13:32:00,
2013-08-30 07:42:00,47.0,-99.9,-100.00,North,-999,-999.0,-999.0,-999,0.00,,,0.02,,2013-08-30 13:42:00,
2013-08-30 08:22:00,47.0,-99.9,-100.00,North,-999,-999.0,-999.0,-999,0.00,,,0.02,,2013-08-30 14:22:00,
2013-08-30 08:32:00,47.0,-99.9,-100.00,North,-999,-999.0,-999.0,-999,0.00,,,0.02,,2013-08-30 14:32:00,
2013-08-30 08:42:00,47.0,-99.9,-100.00,North,-999,-999.0,-999.0,-999,0.00,,,0.02,,2013-08-30 14:42:00,
2013-08-30 09:22:00,54.0,-99.9,-100.00,North,-999,-999.0,-999.0,-999,0.00,,,-99.99,,2013-08-30 15:22:00,
2013-08-30 09:33:00,54.0,-99.9,-100.00,North,-999,-999.0,-999.0,-999,0.00,,,-99.99,,2013-08-30 15:33:00,
2013-08-30 09:44:00,54.0,-99.9,-100.00,North,-999,-999.0,-999.0,-999,0.00,,,-99.99,,2013-08-30 15:44:00,
2013-08-30 10:25:00,61.0,-99.9,-100.00,North,-999,-999.0,-999.0,-999,0.01,,,0.03,,2013-08-30 16:25:00,
2013-08-30 10:33:00,61.0,-99.9,-100.00,North,-999,-999.0,-999.0,-999,0.01,,,0.03,,2013-08-30 16:33:00,
2013-08-30 10:43:00,61.0,-99.9,-100.00,North,-999,-999.0,-999.0,-999,0.01,,,0.03,,2013-08-30 16:43:00,
2013-08-30 11:24:00,65.0,-99.9,-100.00,North,-999,-999.0,-999.0,-999,-99.99,,,0.02,,2013-08-30 17:24:00,
2013-08-30 11:35:00,65.0,-99.9,-100.00,North,-999,-999.0,-999.0,-999,-99.99,,,0.02,,2013-08-30 17:35:00,
2013-08-30 11:42:00,65.0,-99.9,-100.00,North,-999,-999.0,-999.0,-999,-99.99,,,0.02,,2013-08-30 17:42:00,
2013-08-30 12:22:00,67.0,-99.9,-100.00,North,-999,-999.0,-999.0,-999,0.00,,,0.02,,2013-08-30 18:22:00,
2013-08-30 12:32:00,67.0,-99.9,-100.00,North,-999,-999.0,-999.0,-999,0.00,,,0.02,,2013-08-30 18:32:00,
2013-08-30 12:42:00,67.0,-99.9,-100.00,North,-999,-999.0,-999.0,-999,0.00,,,0.02,,2013-08-30 18:42:00,
2013-08-30 13:22:00,74.0,-99.9,-100.00,North,-999,-999.0,-999.0,-999,0.00,,,0.03,,2013-08-30 19:22:00,
2013-08-30 13:32:00,74.0,-99.9,-100.00,North,-999,-999.0,-999.0,-999,0.00,,,0.03,,2013-08-30 19:32:00,
2013-08-30 13:42:00,74.0,-99.9,-100.00,North,-999,-999.0,-999.0,-999,0.00,,,0.03,,2013-08-30 19:42:00,
2013-08-30 14:22:00,76.0,-99.9,-100.00,North,-999,-999.0,-999.0,-999,0.00,,,0.02,,2013-08-30 20:22:00,
2013-08-30 14:32:00,76.0,-99.9,-100.00,North,-999,-999.0,-999.0,-999,0.00,,,0.02,,2013-08-30 20:32:00,
2013-08-30 14:43:00,76.0,-99.9,-100.00,North,-999,-999.0,-999.0,-999,0.00,,,0.02,,2013-08-30 20:43:00,
2013-08-30 15:22:00,78.0,-99.9,-100.00,North,-999,-999.0,-999.0,-999,0.00,,,0.02,,2013-08-30 21:22:00,
2013-08-30 15:34:00,78.0,-99.9,-100.00,North,-999,-999.0,-999.0,-999,0.00,,,0.02,,2013-08-30 21:34:00,
2013-08-30 15:44:00,78.0,-99.9,-100.00,North,-999,-999.0,-999.0,-999,0.00,,,0.02,,2013-08-30 21:44:00,
2013-08-30 16:24:00,81.0,-99.9,-100.00,North,-999,-999.0,-999.0,-999,0.00,,,0.02,,2013-08-30 22:24:00,
2013-08-30 16:33:00,81.0,-99.9,-100.00,North,-999,-999.0,-999.0,-999,0.00,,,0.02,,2013-08-30 22:33:00,
2013-08-30 16:43:00,81.0,-99.9,-100.00,North,-999,-999.0,-999.0,-999,0.00,,,0.02,,2013-08-30 22:43:00,
2013-08-30 17:22:00,75.0,-99.9,-100.00,North,-999,-999.0,-999.0,-999,0.00,,,0.00,,2013-08-30 23:22:00,
2013-08-30 17:33:00,75.0,-99.9,-100.00,North,-999,-999.0,-999.0,-999,0.00,,,0.00,,2013-08-30 23:33:00,
2013-08-30 17:42:00,75.0,-99.9,-100.00,North,-999,-999.0,-999.0,-999,0.00,,,0.00,,2013-08-30 23:42:00,
2013-08-30 18:22:00,80.0,-99.9,-100.00,North,-999,-999.0,-999.0,-999,-99.99,,,0.00,,2013-08-31 00:22:00,
2013-08-30 18:32:00,80.0,-99.9,-100.00,North,-999,-999.0,-999.0,-999,-99.99,,,0.00,,2013-08-31 00:32:00,
2013-08-30 18:42:00,80.0,-99.9,-100.00,North,-999,-999.0,-999.0,-999,-99.99,,,0.00,,2013-08-31 00:42:00,
2013-08-30 19:22:00,81.0,-99.9,-100.00,North,-999,-999.0,-999.0,-999,0.00,,,0.00,,2013-08-31 01:22:00,
2013-08-30 19:32:00,81.0,-99.9,-100.00,North,-999,-999.0,-999.0,-999,0.00,,,0.00,,2013-08-31 01:32:00,
2013-08-30 19:42:00,81.0,-99.9,-100.00,North,-999,-999.0,-999.0,-999,0.00,,,0.00,,2013-08-31 01:42:00,
2013-08-30 20:22:00,75.0,-99.9,-100.00,North,-999,-999.0,-999.0,-999,0.00,,,0.00,,2013-08-31 02:22:00,
2013-08-30 20:32:00,75.0,-99.9,-100.00,North,-999,-999.0,-999.0,-999,0.00,,,0.00,,2013-08-31 02:32:00,
2013-08-30 20:42:00,75.0,-99.9,-100.00,North,-999,-999.0,-999.0,-999,0.00,,,0.00,,2013-08-31 02:42:00,
2013-08-30 20:45:00,68.0,-99.9,-100.00,North,-999,-999.0,-999.0,-999,0.00,,,0.00,,2013-08-31 02:45:00,
2013-08-30 21:22:00,68.0,-99.9,-100.00,North,-999,-999.0,-999.0,-999,0.00,,,0.00,,2013-08-31 03:22:00,
2013-08-30 21:34:00,68.0,-99.9,-100.00,North,-999,-999.0,-999.0,-999,0.00,,,0.00,,2013-08-31 03:34:00,
2013-08-30 22:24:00,61.0,-99.9,-100.00,North,-999,-999.0,-999.0,-999,0.00,,,0.00,,2013-08-31 04:24:00,
2013-08-30 22:34:00,61.0,-99.9,-100.00,North,-999,-999.0,-999.0,-999,0.00,,,0.00,,2013-08-31 04:34:00,
2013-08-30 22:44:00,61.0,-99.9,-100.00,North,-999,-999.0,-999.0,-999,0.00,,,0.00,,2013-08-31 04:44:00,
2013-08-30 23:23:00,57.0,-99.9,-100.00,North,-999,-999.0,-999.0,-999,0.01,,,0.01,,2013-08-31 05:23:00,
2013-08-30 23:34:00,57.0,-99.9,-100.00,North,-999,-999.0,-999.0,-999,0.01,,,0.01,,2013-08-31 05:34:00,
2013-08-30 23:43:00,57.0,-99.9,-100.00,North,-999,-999.0,-999.0,-999,0.01,,,0.01,,2013-08-31 05:43:00,